TimePDT,TemperatureF,Dew PointF,Humidity,Sea Level PressureIn,VisibilityMPH,Wind Direction,Wind SpeedMPH,Gust SpeedMPH,PrecipitationIn,Events,Conditions,WindDirDegrees,DateUTC
12:53 AM,79.0,30.9,17,29.86,10.0,SW,3.5,-,N/A,,Clear,220,2014-05-03 07:53:00
1:53 AM,75.0,34.0,22,29.86,10.0,West,3.5,-,N/A,,Clear,270,2014-05-03 08:53:00
2:53 AM,75.0,30.0,19,29.85,10.0,WSW,4.6,-,N/A,,Clear,240,2014-05-03 09:53:00
3:53 AM,75.9,28.9,18,29.85,10.0,Calm,Calm,-,N/A,,Clear,0,2014-05-03 10:53:00
4:53 AM,75.0,21.9,14,29.85,10.0,NNW,4.6,-,N/A,,Clear,340,2014-05-03 11:53:00
5:53 AM,73.9,19.0,13,29.85,10.0,NNW,8.1,-,N/A,,Clear,330,2014-05-03 12:53:00
6:53 AM,73.9,28.0,18,29.86,10.0,WNW,3.5,-,N/A,,Clear,290,2014-05-03 13:53:00
7:53 AM,81.0,19.9,10,29.87,10.0,Calm,Calm,-,N/A,,Clear,0,2014-05-03 14:53:00
8:53 AM,87.1,21.9,9,29.88,10.0,Calm,Calm,-,N/A,,Clear,0,2014-05-03 15:53:00
9:53 AM,90.0,19.0,7,29.88,10.0,SE,8.1,-,N/A,,Clear,130,2014-05-03 16:53:00
10:53 AM,91.0,28.9,11,29.89,10.0,ESE,9.2,-,N/A,,Clear,110,2014-05-03 17:53:00
11:53 AM,95.0,23.0,8,29.87,10.0,ESE,8.1,-,N/A,,Clear,120,2014-05-03 18:53:00
12:53 PM,97.0,15.1,5,29.85,10.0,East,9.2,-,N/A,,Scattered Clouds,100,2014-05-03 19:53:00
1:53 PM,99.0,18.0,5,29.83,10.0,ESE,9.2,-,N/A,,Clear,110,2014-05-03 20:53:00
2:53 PM,99.0,16.0,5,29.80,10.0,SE,6.9,17.3,N/A,,Scattered Clouds,130,2014-05-03 21:53:00
3:53 PM,100.9,19.9,5,29.77,10.0,ESE,9.2,-,N/A,,Clear,110,2014-05-03 22:53:00
4:53 PM,100.9,21.0,6,29.76,10.0,ESE,9.2,-,N/A,,Scattered Clouds,110,2014-05-03 23:53:00
5:53 PM,100.0,21.0,6,29.75,10.0,East,9.2,-,N/A,,Scattered Clouds,100,2014-05-04 00:53:00
6:53 PM,98.1,23.0,7,29.75,10.0,NNW,15.0,18.4,N/A,,Scattered Clouds,330,2014-05-04 01:53:00
7:53 PM,93.9,23.0,8,29.77,10.0,NW,13.8,20.7,N/A,,Clear,310,2014-05-04 02:53:00
8:53 PM,91.9,23.0,8,29.78,10.0,Calm,Calm,-,N/A,,Clear,0,2014-05-04 03:53:00
9:53 PM,90.0,21.0,8,29.81,10.0,NW,11.5,-,N/A,,Clear,310,2014-05-04 04:53:00
10:53 PM,88.0,19.9,8,29.81,10.0,NNW,8.1,-,N/A,,Clear,330,2014-05-04 05:53:00
11:53 PM,82.0,26.1,13,29.82,10.0,Variable,3.5,-,N/A,,Clear,0,2014-05-04 06:53:00